Погода в Семилуках

Россия / Воронежская область     51°43′41″N   39°02′35″E
темп.,
°C
ветер,
м/с
пор.,
м/с
влажн.,
%
обл.,
%
осадки,
мм/ч
давл.,
гПа
погр.,
м
4 марта, чт
чт400:00−1з5128956 0.0 1017705
03:00−1з5118775 0.0 1016780
06:00−2зюз6139170 0.0 1014415
09:00−1зюз7138235 0.0 1012519
12:00+2зюз714750 0.0 1010740
15:00+3зюз8157311 0.0 1007891
18:00+2зюз6168424 0.0 1005694
21:00+1з6119543 0.0 1004708
5 марта, пт
пт500:00+1зюз41197100 0.3 1004487
03:00+1зсз4997100 0.8 1005493
06:000зсз488997 0.1 1006436
09:00−1сз358697 0.1 1008381
12:000с237599 0.0 1010581
15:00+1ссз237099 0.0 1011745
18:00−1ссз2380100 0.0 1012270
21:00−1с238299 0.0 1014293
6 марта, сб
сб600:00−2ссв3474100 0.0 1014353
03:00−3ссв3576100 0.0 1015414
06:00−3ссв2479100 0.0 1015367
09:00−3ссв237899 0.0 1016395
12:00−1ссз226571 0.0 1016791
15:00−1сз336286 0.1 1016905
18:00−3сз457785 0.3 1016676
21:00−4сз467890 0.4 1018557
7 марта, вс
вс700:00−5сз588078 0.0 1019486
03:00−6зсз587264 0.0 1020519
06:00−6зюз510690 0.0 1019651
09:00−4юз8135928 0.0 1017937
12:00−2юз101648100 0.0 10131197
15:000зюз111950100 0.0 10091542
18:00−1зюз101873100 0.0 10071426
21:00−1зюз91770100 0.1 10071105
8 марта, пн
пн800:00−5св3585100 1.1 1006293
03:00−4вюв2293100 2.3 1005192
06:00−4сз4891100 1.2 1004504
09:00−3з7127489 1.2 10061222
12:00−3зсз7107378 0.1 10081187
15:00−3зсз586469 0.1 10101006
18:00−5зсз47720 0.0 1011715
21:00−6зсз25790 0.0 1013346